Location: T�bingen+AIT
(48.5342°N, 9.0700°E)
Time: 15:09:54
(UTC+01:00)

USA 215 - Pass Details

Date: 14 September 2017
Orbit: 1101 x 1107 km, 123.0° (Epoch: 10 November)

Event Time Altitude Azimuth Distance (km) Brightness Sun altitude
Rises 21:57:41 0° 55° (NE) 3,925 6.0 -22.4°
Reaches altitude 10° 22:00:16 10° 61° (ENE) 2,965 5.3 -22.8°
Enters shadow 22:00:38 12° 62° (ENE) 2,836 5.2 -22.8°
Exits shadow 22:04:02 33° 83° (E) 1,749 3.9 -23.3°
Maximum altitude 22:06:36 50° 136° (SE) 1,385 3.3 -23.6°
Drops below altitude 10° 22:12:54 10° 210° (SSW) 2,955 5.4 -24.5°
Sets 22:15:28 0° 216° (SW) 3,911 6.1 -24.8°
